Location: Bouchavesnes-Bergen
(49.9859°N, 2.9203°E)
Time: 09:23:24
(UTC+00:00)

Cosmos 1812 - Visible Passes

Search period start: 22 June 2021 00:00
Search period end: 02 July 2021 00:00
Orbit: 514 x 521 km, 82.5° (Epoch: 21 June)

Date Brightness Start Highest point End Pass type
(mag) Time Alt. Az. Time Alt. Az. Time Alt. Az.
22 Jun 4.9 01:37:09 10° NNE 01:40:19 24° ENE 01:43:28 10° SE visible
23 Jun 5.1 01:22:56 10° NNE 01:25:54 21° ENE 01:28:51 10° ESE visible
24 Jun 5.3 01:08:45 10° NNE 01:11:28 18° ENE 01:14:11 10° ESE visible
24 Jun 3.2 02:43:48 10° NNW 02:47:28 43° W 02:51:06 10° SSW visible
25 Jun 5.4 00:54:35 10° NNE 00:57:02 16° ENE 00:59:27 10° ESE visible
25 Jun 3.0 02:29:23 10° NNW 02:33:07 51° W 02:36:50 10° S visible
26 Jun 5.5 00:40:31 10° NNE 00:42:35 14° ENE 00:44:38 10° E visible
26 Jun 2.8 02:14:57 10° NNW 02:18:46 61° W 02:22:33 10° S visible
27 Jun 5.5 00:26:32 10° NE 00:28:07 12° ENE 00:29:43 10° E visible
27 Jun 2.7 02:00:34 10° NNW 02:04:25 73° W 02:08:03 11° S visible
28 Jun 5.7 00:12:52 10° NE 00:13:39 10° ENE 00:14:28 10° ENE visible
28 Jun 2.6 01:46:10 10° N 01:50:02 86° W 01:53:24 13° S visible
29 Jun 2.7 01:31:48 10° N 01:35:40 81° E 01:38:46 15° SSE visible
30 Jun 2.9 01:17:26 10° N 01:21:17 68° ENE 01:24:11 17° SSE visible
30 Jun 4.9 02:55:07 10° WNW 02:56:29 12° W 02:57:50 10° WSW visible
01 Jul 3.2 01:03:05 10° N 01:06:54 57° ENE 01:09:36 18° SSE visible
01 Jul 4.8 02:40:14 10° NW 02:42:10 14° W 02:44:07 10° WSW visible
